• In Uzbekistan
  • List of Countries
  • For 7 days
  • Water Temperature
  • Satellite Maps
  • Weather Map
  • Weather Widgets
  • user-avatar
    Login

    Hourly Weather Sankt Polten

    Today, 29 June, Thursday

    Time Temperature Precipitation Wind Pressure Humidity
    00:00 +19°C° 0 mm 3 mps 722 mmHg 81%
    01:00 +18°C° 0 mm 1 mps 722 mmHg 91%
    02:00 +17°C° 0 mm 2 mps 721 mmHg 90%
    03:00 +17°C° 0 mm 2 mps 721 mmHg 90%
    04:00 +17°C° 0 mm 2 mps 721 mmHg 89%
    05:00 +18°C° 0 mm 3 mps 721 mmHg 86%
    06:00 +19°C° 0 mm 4 mps 721 mmHg 83%
    07:00 +20°C° 0 mm 4 mps 722 mmHg 78%
    08:00 +21°C° 0.1 mm 5 mps 722 mmHg 72%
    09:00 +22°C° 0.1 mm 5 mps 723 mmHg 67%
    10:00 +23°C° 0.1 mm 6 mps 723 mmHg 62%
    11:00 +23°C° 0.3 mm 6 mps 724 mmHg 62%
    12:00 +23°C° 0.3 mm 6 mps 724 mmHg 62%
    13:00 +23°C° 0.3 mm 6 mps 725 mmHg 62%
    14:00 +22°C° 0.2 mm 5 mps 725 mmHg 63%
    15:00 +22°C° 0.2 mm 4 mps 725 mmHg 63%
    16:00 +22°C° 0.2 mm 4 mps 725 mmHg 64%
    17:00 +21°C° 0.1 mm 3 mps 726 mmHg 68%
    18:00 +20°C° 0.1 mm 2 mps 726 mmHg 72%
    19:00 +20°C° 0.1 mm 2 mps 726 mmHg 76%
    20:00 +18°C° 0 mm 2 mps 726 mmHg 81%
    21:00 +17°C° 0 mm 2 mps 726 mmHg 85%
    22:00 +15°C° 0 mm 1 mps 727 mmHg 89%
    23:00 +15°C° 0 mm 2 mps 727 mmHg 89%

    Tomorrow, 30 June, Friday

    Time Temperature Precipitation Wind Pressure Humidity
    00:00 +15°C° 0 mm 2 mps 728 mmHg 89%
    01:00 +15°C° 0 mm 2 mps 728 mmHg 89%
    02:00 +15°C° 0 mm 2 mps 728 mmHg 90%
    03:00 +14°C° 0 mm 2 mps 728 mmHg 91%
    04:00 +14°C° 0 mm 2 mps 728 mmHg 92%
    05:00 +15°C° 0 mm 2 mps 729 mmHg 87%
    06:00 +16°C° 0 mm 3 mps 729 mmHg 82%
    07:00 +17°C° 0 mm 3 mps 730 mmHg 77%
    08:00 +18°C° 0 mm 3 mps 730 mmHg 72%
    09:00 +19°C° 0 mm 3 mps 730 mmHg 68%
    10:00 +20°C° 0 mm 3 mps 731 mmHg 63%
    11:00 +21°C° 0.1 mm 3 mps 731 mmHg 60%
    12:00 +23°C° 0.1 mm 2 mps 731 mmHg 57%
    13:00 +23°C° 0.1 mm 2 mps 731 mmHg 55%
    14:00 +24°C° 0.1 mm 2 mps 731 mmHg 53%
    15:00 +24°C° 0.1 mm 2 mps 731 mmHg 52%
    16:00 +25°C° 0.1 mm 2 mps 731 mmHg 50%
    17:00 +24°C° 0 mm 2 mps 730 mmHg 58%
    18:00 +22°C° 0 mm 1 mps 730 mmHg 65%
    19:00 +21°C° 0 mm 1 mps 730 mmHg 73%
    20:00 +19°C° 0.1 mm 1 mps 730 mmHg 77%
    21:00 +18°C° 0.1 mm 1 mps 730 mmHg 81%
    22:00 +15°C° 0.1 mm 1 mps 731 mmHg 85%
    23:00 +15°C° 0.2 mm 1 mps 731 mmHg 86%

    Day after tomorrow, 1 July, Saturday

    Time Temperature Precipitation Wind Pressure Humidity
    00:00 +15°C° 0.2 mm 1 mps 731 mmHg 87%
    01:00 +15°C° 0.2 mm 1 mps 731 mmHg 88%
    02:00 +15°C° 0.5 mm 2 mps 730 mmHg 90%
    03:00 +15°C° 0.5 mm 2 mps 730 mmHg 92%
    04:00 +15°C° 0.5 mm 2 mps 730 mmHg 94%
    05:00 +15°C° 1.6 mm 2 mps 730 mmHg 95%
    06:00 +13°C° 1.6 mm 3 mps 731 mmHg 95%
    07:00 +13°C° 1.6 mm 3 mps 731 mmHg 95%
    08:00 +14°C° 0.5 mm 4 mps 732 mmHg 90%
    09:00 +17°C° 0.5 mm 4 mps 732 mmHg 85%
    10:00 +17°C° 0.5 mm 5 mps 732 mmHg 80%
    11:00 +19°C° 0.1 mm 5 mps 732 mmHg 72%
    12:00 +21°C° 0.1 mm 5 mps 733 mmHg 64%
    13:00 +22°C° 0.1 mm 5 mps 733 mmHg 55%
    14:00 +22°C° 0.1 mm 5 mps 733 mmHg 55%
    15:00 +23°C° 0.1 mm 5 mps 733 mmHg 56%
    16:00 +23°C° 0.1 mm 5 mps 733 mmHg 56%
    17:00 +22°C° 0.1 mm 4 mps 733 mmHg 63%
    18:00 +20°C° 0.1 mm 3 mps 733 mmHg 70%
    19:00 +19°C° 0.1 mm 2 mps 733 mmHg 77%
    20:00 +18°C° 0 mm 2 mps 733 mmHg 81%
    21:00 +17°C° 0 mm 3 mps 733 mmHg 84%
    22:00 +14°C° 0 mm 3 mps 734 mmHg 88%
    23:00 +14°C° 0 mm 3 mps 734 mmHg 88%

    2 July, Sunday

    Time Temperature Precipitation Wind Pressure Humidity
    00:00 +14°C° 0 mm 3 mps 734 mmHg 88%
    01:00 +14°C° 0 mm 3 mps 734 mmHg 88%
    02:00 +14°C° 0 mm 3 mps 734 mmHg 89%
    03:00 +14°C° 0 mm 4 mps 734 mmHg 89%
    04:00 +14°C° 0 mm 4 mps 734 mmHg 89%
    05:00 +14°C° 0.1 mm 4 mps 734 mmHg 86%
    06:00 +15°C° 0.1 mm 5 mps 735 mmHg 83%
    07:00 +16°C° 0.1 mm 6 mps 735 mmHg 80%
    08:00 +16°C° 0.2 mm 5 mps 735 mmHg 79%
    09:00 +17°C° 0.2 mm 5 mps 735 mmHg 77%
    10:00 +17°C° 0.2 mm 5 mps 735 mmHg 76%
    11:00 +17°C° 0.1 mm 5 mps 735 mmHg 77%
    12:00 +17°C° 0.1 mm 5 mps 736 mmHg 77%
    13:00 +17°C° 0.1 mm 5 mps 736 mmHg 78%
    14:00 +19°C° 0.1 mm 5 mps 736 mmHg 74%
    15:00 +20°C° 0.1 mm 5 mps 736 mmHg 69%
    16:00 +21°C° 0.1 mm 5 mps 736 mmHg 65%
    17:00 +20°C° 0.1 mm 5 mps 736 mmHg 68%
    18:00 +19°C° 0.1 mm 4 mps 736 mmHg 71%
    19:00 +19°C° 0.1 mm 4 mps 737 mmHg 74%
    20:00 +17°C° 0 mm 3 mps 737 mmHg 79%
    21:00 +16°C° 0 mm 3 mps 737 mmHg 83%
    22:00 +14°C° 0 mm 3 mps 738 mmHg 87%
    23:00 +14°C° 0 mm 3 mps 738 mmHg 88%

    3 July, Monday

    Time Temperature Precipitation Wind Pressure Humidity
    00:00 +14°C° 0 mm 3 mps 738 mmHg 90%
    01:00 +13°C° 0 mm 3 mps 738 mmHg 92%
    02:00 +13°C° 0 mm 3 mps 738 mmHg 92%
    03:00 +13°C° 0 mm 3 mps 738 mmHg 93%
    04:00 +13°C° 0 mm 3 mps 738 mmHg 93%
    05:00 +14°C° 0.2 mm 3 mps 738 mmHg 92%
    06:00 +16°C° 0.2 mm 3 mps 738 mmHg 90%
    07:00 +16°C° 0.2 mm 3 mps 738 mmHg 88%
    08:00 +17°C° 0.3 mm 3 mps 738 mmHg 86%
    09:00 +18°C° 0.3 mm 3 mps 738 mmHg 84%
    10:00 +19°C° 0.3 mm 4 mps 739 mmHg 82%
    11:00 +19°C° 0.3 mm 4 mps 738 mmHg 83%
    12:00 +19°C° 0.3 mm 4 mps 738 mmHg 83%
    13:00 +19°C° 0.3 mm 4 mps 738 mmHg 84%
    14:00 +20°C° 0.1 mm 4 mps 738 mmHg 78%
    15:00 +21°C° 0.1 mm 5 mps 738 mmHg 73%
    16:00 +22°C° 0.1 mm 5 mps 738 mmHg 67%
    17:00 +21°C° 0.1 mm 4 mps 738 mmHg 73%
    18:00 +20°C° 0.1 mm 3 mps 738 mmHg 78%
    19:00 +19°C° 0.1 mm 2 mps 738 mmHg 84%
    20:00 +18°C° 0.2 mm 2 mps 738 mmHg 87%
    21:00 +17°C° 0.2 mm 2 mps 739 mmHg 91%
    22:00 +15°C° 0.2 mm 2 mps 739 mmHg 95%
    23:00 +15°C° 0 mm 2 mps 739 mmHg 95%

    4 July, Tuesday

    Time Temperature Precipitation Wind Pressure Humidity
    00:00 +15°C° 0 mm 2 mps 739 mmHg 95%
    01:00 +14°C° 0 mm 2 mps 739 mmHg 95%
    02:00 +14°C° 0 mm 2 mps 739 mmHg 95%
    03:00 +14°C° 0 mm 2 mps 739 mmHg 95%
    04:00 +14°C° 0 mm 2 mps 739 mmHg 95%
    05:00 +15°C° 0 mm 2 mps 739 mmHg 91%
    06:00 +17°C° 0 mm 2 mps 739 mmHg 87%
    07:00 +18°C° 0 mm 2 mps 740 mmHg 83%
    08:00 +20°C° 0 mm 2 mps 740 mmHg 75%
    09:00 +21°C° 0 mm 3 mps 740 mmHg 66%
    10:00 +24°C° 0 mm 3 mps 740 mmHg 58%
    11:00 +25°C° 0 mm 3 mps 739 mmHg 55%
    12:00 +26°C° 0 mm 3 mps 739 mmHg 52%
    13:00 +26°C° 0 mm 3 mps 739 mmHg 49%
    14:00 +26°C° 0.1 mm 3 mps 739 mmHg 49%
    15:00 +26°C° 0.1 mm 3 mps 738 mmHg 50%
    16:00 +26°C° 0.1 mm 2 mps 738 mmHg 51%
    17:00 +25°C° 0.1 mm 2 mps 738 mmHg 60%
    18:00 +24°C° 0.1 mm 1 mps 738 mmHg 69%
    19:00 +22°C° 0.1 mm 1 mps 738 mmHg 78%
    20:00 +19°C° 0 mm 1 mps 738 mmHg 82%
    21:00 +16°C° 0 mm 1 mps 738 mmHg 87%
    22:00 +12°C° 0 mm 0 mps 738 mmHg 91%
    23:00 +12°C° 0 mm 0 mps 738 mmHg 92%
    Show more